NOAA 16 DEB, 41276

Orbit data source: Space-Track

NOAA 16 DEB, 41276 is space debris in SSO originally from a launch on Thu, 21 Sep 2000 UTC launched from the Air Force Western Test Range (AFWTR). Debris objects in space refer to the collection of defunct objects orbiting the Earth. Examples of debris include non-operational satellites, rocket bodies, and fragments generated from explosions, collisions, or faulty payload assembly.

Loading next visibility...
Identifier
41276, 2000-055GC
Orbit
SSO
Country
Flag of USUS
Related business
Manufacturer
Unknown
Mission
Spacecraft
Bus & Motor
Unknown
Mass
Unknown
Launch date (UTC)
2000-09-21 (25 years ago)
Launch vehicle
Unknown
Launch site
Air Force Western Test Range (AFWTR)
Object type
Payload
Rocket body
Debris
Shape & HBR
Unknown shape, 0.1 m
Radar Cross Section
Small (<0.1 m²)

Expand to show TLE details & history
Last TLE update: 2 days ago

TLE from 2 days ago
0 NOAA 16 DEB
1 41276U 00055GC  25307.37744255  .00003182  00000-0  14417-2 0  9997
2 41276  98.6644 355.8112 0013769  93.0067 267.2687 14.22580892508894
Epoch: 2025-11-03T09:03Z
TLE epoch observation values (Epoch: 2025-11-03T09:03:31.036Z)
Latitude
-0°
Longitude
177.05219°
Altitude
820.043 km
Speed
7.443 km/s
True Right ascension
23h 43m 14s
True Declination
0° 00' 00"
Sunlit
Object was in full shadow at epoch
Visualization orbit readout
Latitude
Unknown
Longitude
Unknown
Altitude
Unknown
Speed
Unknown
Apparent Right ascension
Unknown
Apparent Declination
Unknown
Sunlit
N/A
Visualization observer readout
Local Sidereal Time
05:51:03
Azimuth
Unknown
Elevation
Unknown
Doppler factor
Unknown
Orbital elements
Apogee altitude
823.693 km
Perigee altitude
803.888 km
Semi-major axis
7,191.928 km
Eccentricity
0.00138
Inclination
98.6644°
RAAN
355.8112°
Arg. of periapsis
93.0067°
True anomaly
267.11111°
Mean anomaly
267.2687°
Eccentric anomaly
267.1899°
Mean motion
3.55857 °/min
Orbital period
101.16 mins
BSTAR
0.0014417
Loading maneuver chart data...
Computing Atmospheric mass density...
Loading historical data...
Loading historical data...
Loading historical data...
Loading historical data...
Loading historical data...
Loading historical data...
Loading historical data...

Documentation

Showing up to 5 results
|